Home > Weather > Falkensee > Past weeks

Flag for Germany Weather for the Past 2 Weeks in Falkensee, Brandenburg, Germany

Now
64 °F

Sunny.


Feels Like: 64 °F
Forecast: 47 / 70 °F
Wind: 3 mph from North

Location: Berlin-Tegel

Current Time: May 5, 2016 at 3:15:23 PM

Latest Report: May 5, 2016 at 2:20 PM


Visibility: 10 mi

Pressure: 30.33 "Hg

Humidity: 32%

Dew Point: 34 °F

Location of FalkenseeLocation

Historic Weather in Falkensee — Graph

°F

Falkensee Temperature Yesterday

Maximum temperature yesterday: 57 °F (at 1:50 PM)
Minimum temperature yesterday: 45 °F (at 5:50 AM)
Average temperature yesterday: 51 °F

High & Low Weather Summary for the Past Weeks

 TemperatureHumidityPressure
High68 °F (May 3, 4:20 PM)93% (Apr 21, 6:50 AM)30.39 "Hg (Apr 21, 6:50 AM)
Low32 °F (Apr 29, 5:50 AM)22% (May 5, 11:50 AM)29.45 "Hg (Apr 26, 5:50 AM)
Average48 °F59%29.99 "Hg
* Reported Apr 20 2:20 PM — May 5 2:20 PM, Falkensee, Weather by CustomWeather, © 2016

Note: Actual official high and low records may vary slightly from our data, if they occured in-between our weather recording intervals... More about our weather records

Advertising

Falkensee Weather History for the Previous 24 Hours

Scroll right to see more
 ConditionsComfort  
Time TempWeatherWind HumidityBarometerVisibility
2:20 PM
Thu, May 5
64 °FSunny.3 mph32%30.33 "Hg10 mi
1:50 PM64 °FPassing clouds.7 mph32%30.33 "HgN/A
1:20 PM63 °FSunny.5 mph30%30.33 "Hg10 mi
12:50 PM64 °FPassing clouds.6 mph28%30.36 "HgN/A
12:20 PM63 °FSunny.6 mph25%30.36 "Hg10 mi
11:50 AM61 °FPassing clouds.6 mph22%30.36 "HgN/A
11:20 AM61 °FSunny.3 mph29%30.36 "Hg10 mi
10:50 AM61 °FSunny.3 mph31%30.36 "Hg10 mi
10:20 AM59 °FSunny.3 mph34%30.39 "Hg10 mi
9:50 AM57 °FSunny.5 mph36%30.39 "Hg10 mi
9:20 AM55 °FSunny.5 mph44%30.39 "Hg10 mi
8:50 AM54 °FPassing clouds.6 mph51%30.39 "HgN/A
8:20 AM52 °FPassing clouds.5 mph54%30.39 "HgN/A
7:50 AM50 °FPassing clouds.5 mph58%30.39 "HgN/A
7:20 AM50 °FPassing clouds.3 mph62%30.39 "HgN/A
6:50 AM48 °FSunny.2 mph66%30.39 "Hg10 mi
6:20 AM46 °FClear.2 mph71%30.39 "Hg10 mi
5:50 AM46 °FClear.3 mph71%30.39 "Hg10 mi
5:20 AM46 °FClear.2 mph71%30.39 "Hg10 mi
4:50 AM46 °FClear.2 mph71%30.39 "Hg10 mi
4:20 AM46 °FClear.2 mph71%30.39 "Hg10 mi
3:50 AM45 °FClear.2 mph76%30.39 "Hg10 mi
3:20 AM43 °FClear.2 mph76%30.39 "Hg10 mi
2:50 AM43 °FClear.1 mph71%30.39 "Hg10 mi
2:20 AM43 °FClear.2 mph71%30.39 "Hg10 mi
1:50 AM41 °FClear.2 mph76%30.39 "Hg10 mi
1:20 AM46 °FPassing clouds.3 mph66%30.39 "HgN/A
12:50 AM48 °FPassing clouds.3 mph58%30.39 "HgN/A
12:20 AM48 °FClear.3 mph58%30.39 "Hg10 mi
11:50 PM
Wed, May 4
48 °FClear.2 mph58%30.39 "Hg10 mi
11:20 PM50 °FPassing clouds.3 mph58%30.39 "HgN/A
10:50 PM50 °FPassing clouds.3 mph58%30.36 "HgN/A
10:20 PM52 °FPassing clouds.3 mph50%30.36 "HgN/A
9:50 PM52 °FClear.3 mph50%30.36 "Hg10 mi
9:20 PM54 °FPassing clouds.3 mph47%30.36 "HgN/A
8:50 PM55 °FPassing clouds.3 mph44%30.33 "HgN/A
8:20 PM57 °FPassing clouds.6 mph41%30.33 "HgN/A
7:50 PM57 °FPassing clouds.8 mph39%30.33 "HgN/A
7:20 PM57 °FPassing clouds.7 mph39%30.33 "HgN/A
6:50 PM57 °FPassing clouds.8 mph39%30.33 "HgN/A
6:20 PM57 °FPassing clouds.8 mph41%30.33 "HgN/A
5:50 PM57 °FPassing clouds.8 mph41%30.33 "HgN/A
5:20 PM57 °FScattered clouds.9 mph48%30.33 "HgN/A
4:50 PM57 °FScattered clouds.10 mph44%30.33 "HgN/A
4:20 PM55 °FScattered clouds.12 mph51%30.33 "HgN/A
3:50 PM55 °FScattered clouds.13 mph51%30.33 "HgN/A
3:20 PM57 °FScattered clouds.12 mph51%30.33 "HgN/A
Weather by CustomWeather, © 2016

See weather overviewHow to use our weather pages